Tracking 31028 objects as of 18-Jul-2025
HD Live streaming from Space Station
objects crossing your sky now

ORBITER SN3

Track ORBITER SN3 now!
10-day predictions


NORAD ID: 56960
Int'l Code: 2023-084AE
Perigee: 481.9 km
Apogee: 496.7 km
Inclination: 97.6 °
Period: 94.2 minutes
Semi major axis: 6860 km
RCS: Unknown
Launch date: June 12, 2023
Source: United States (US)
Launch site: AIR FORCE WESTERN TEST RANGE (AFWTR)
Your satellite tracking list
Your tracking list is empty




NASA's NSSDC Master Catalog

Two Line Element Set (TLE):
1 56960U 23084AE  25199.15283851  .00005428  00000-0  20202-3 0  9990
2 56960  97.5843 326.4738 0010754  78.1243 282.1201 15.27877266116374
Source of the keplerian elements: AFSPC